BEL2LP EDDH-EBBR

Flight info

Callsign BEL2LP
Flight time 0h 54m
Altitude 36000
Route WSN5G/33 WSN N125 SILQI N872 LILSI Z310 WOODY
Aircraft A320/M-SDE3FGHIRWY/LB1

Departure

Time 2026-05-07 19:22
Airport Hamburg Helmut Schmidt Airport (EDDH)

Arrival

Time 2026-05-07 20:17
Airport Brussels Airport (EBBR)
Time Latitude Longitude Altitude Speed Heading
2026-05-07 18:57 53.63415 10.00343 51 ft 0 kts 85°
2026-05-07 19:12 53.63415 10.00338 51 ft 3 kts 85°
2026-05-07 19:13 53.63413 10.00294 46 ft 4 kts 85°
2026-05-07 19:13 53.63410 10.00248 49 ft 4 kts 85°
2026-05-07 19:13 53.63408 10.00204 51 ft 4 kts 93°
2026-05-07 19:13 53.63416 10.00167 47 ft 4 kts 145°
2026-05-07 19:14 53.63436 10.00154 51 ft 1 kts 175°
2026-05-07 19:14 53.63418 10.00156 48 ft 4 kts 175°
2026-05-07 19:14 53.63404 10.00158 51 ft 0 kts 175°
2026-05-07 19:16 53.63390 10.00160 48 ft 8 kts 175°
2026-05-07 19:17 53.63333 10.00166 51 ft 8 kts 175°
2026-05-07 19:17 53.63277 10.00173 51 ft 10 kts 176°
2026-05-07 19:17 53.63213 10.00180 51 ft 9 kts 176°
2026-05-07 19:17 53.63158 10.00187 49 ft 7 kts 176°
2026-05-07 19:18 53.63091 10.00190 51 ft 11 kts 189°
2026-05-07 19:18 53.63029 10.00140 51 ft 9 kts 211°
2026-05-07 19:18 53.62977 10.00086 48 ft 8 kts 211°
2026-05-07 19:18 53.62932 10.00024 50 ft 11 kts 237°
2026-05-07 19:19 53.62907 9.99949 47 ft 0 kts 242°
2026-05-07 19:19 53.62904 9.99939 48 ft 5 kts 244°
2026-05-07 19:19 53.62901 9.99930 49 ft 0 kts 244°
2026-05-07 19:21 53.62898 9.99918 50 ft 6 kts 244°
2026-05-07 19:21 53.62873 9.99833 48 ft 8 kts 244°
2026-05-07 19:21 53.62877 9.99744 49 ft 8 kts 303°
2026-05-07 19:22 53.63042 9.99595 49 ft 62 kts 334°
2026-05-07 19:22 53.63627 9.99090 50 ft 125 kts 333°
2026-05-07 19:22 53.64555 9.98293 65 ft 171 kts 336°
2026-05-07 19:22 53.65602 9.97373 657 ft 168 kts 334°
2026-05-07 19:23 53.66622 9.96378 1325 ft 171 kts 332°
2026-05-07 19:23 53.67638 9.95300 1988 ft 173 kts 330°
2026-05-07 19:23 53.68635 9.94167 2621 ft 172 kts 329°
2026-05-07 19:23 53.69633 9.93055 3247 ft 171 kts 328°
2026-05-07 19:24 53.70510 9.91703 3845 ft 172 kts 309°
2026-05-07 19:24 53.71006 9.89895 4423 ft 171 kts 277°
2026-05-07 19:24 53.70904 9.87907 4844 ft 180 kts 254°
2026-05-07 19:24 53.70523 9.85730 5022 ft 205 kts 252°
2026-05-07 19:25 53.70091 9.83293 5252 ft 228 kts 252°
2026-05-07 19:25 53.69617 9.80585 5523 ft 253 kts 253°
2026-05-07 19:25 53.69101 9.77612 5990 ft 273 kts 253°
2026-05-07 19:25 53.68553 9.74494 6752 ft 280 kts 253°
2026-05-07 19:26 53.67957 9.71366 7651 ft 281 kts 252°
2026-05-07 19:26 53.67330 9.68222 8472 ft 285 kts 251°
2026-05-07 19:26 53.66688 9.65042 9334 ft 288 kts 251°
2026-05-07 19:26 53.66039 9.61822 10161 ft 291 kts 251°
2026-05-07 19:27 53.65304 9.58549 10579 ft 310 kts 244°
2026-05-07 19:27 53.64157 9.55348 10904 ft 328 kts 233°
2026-05-07 19:27 53.63252 9.53279 11327 ft 332 kts 233°
2026-05-07 19:27 53.61885 9.50114 12065 ft 336 kts 234°
2026-05-07 19:28 53.60510 9.46909 12839 ft 339 kts 234°
2026-05-07 19:28 53.59109 9.43637 13606 ft 342 kts 234°
2026-05-07 19:28 53.57713 9.40377 14304 ft 345 kts 234°
2026-05-07 19:28 53.56324 9.37139 14942 ft 347 kts 234°
2026-05-07 19:29 53.54901 9.33834 15589 ft 350 kts 234°
2026-05-07 19:29 53.53463 9.30505 16229 ft 354 kts 234°
2026-05-07 19:29 53.52013 9.27144 16837 ft 357 kts 234°
2026-05-07 19:29 53.50545 9.23750 17461 ft 361 kts 234°
2026-05-07 19:30 53.49063 9.20326 18087 ft 364 kts 234°
2026-05-07 19:30 53.47567 9.16877 18656 ft 367 kts 234°
2026-05-07 19:30 53.46058 9.13390 19196 ft 370 kts 234°
2026-05-07 19:30 53.44536 9.09883 19745 ft 373 kts 234°
2026-05-07 19:31 53.43001 9.06360 20306 ft 375 kts 234°
2026-05-07 19:31 53.41452 9.02820 20844 ft 378 kts 234°
2026-05-07 19:31 53.39889 8.99252 21384 ft 381 kts 234°
2026-05-07 19:31 53.38316 8.95667 21964 ft 383 kts 234°
2026-05-07 19:32 53.36736 8.92065 22532 ft 385 kts 234°
2026-05-07 19:32 53.35200 8.88371 23051 ft 388 kts 240°
2026-05-07 19:32 53.34019 8.84316 23582 ft 390 kts 249°
2026-05-07 19:32 53.33082 8.80041 24029 ft 392 kts 250°
2026-05-07 19:33 53.32138 8.75750 24452 ft 395 kts 250°
2026-05-07 19:33 53.31178 8.71422 24851 ft 398 kts 250°
2026-05-07 19:33 53.30211 8.67071 25240 ft 401 kts 250°
2026-05-07 19:33 53.29240 8.62694 25636 ft 403 kts 250°
2026-05-07 19:34 53.28270 8.58284 26030 ft 405 kts 250°
2026-05-07 19:34 53.27300 8.53861 26419 ft 407 kts 250°
2026-05-07 19:34 53.26327 8.49403 26794 ft 409 kts 250°
2026-05-07 19:34 53.25416 8.44956 27164 ft 411 kts 252°
2026-05-07 19:35 53.24538 8.40342 27531 ft 413 kts 253°
2026-05-07 19:35 53.23709 8.35796 27885 ft 415 kts 253°
2026-05-07 19:35 53.22875 8.31172 28241 ft 417 kts 253°
2026-05-07 19:35 53.22033 8.26529 28590 ft 419 kts 253°
2026-05-07 19:36 53.21171 8.21869 28934 ft 421 kts 252°
2026-05-07 19:36 53.20285 8.17190 29250 ft 424 kts 252°
2026-05-07 19:36 53.19382 8.12493 29547 ft 427 kts 252°
2026-05-07 19:36 53.18473 8.07769 29858 ft 429 kts 252°
2026-05-07 19:37 53.17569 8.03024 30159 ft 431 kts 252°
2026-05-07 19:37 53.16666 7.98244 30414 ft 433 kts 252°
2026-05-07 19:37 53.15760 7.93453 30662 ft 435 kts 252°
2026-05-07 19:37 53.14849 7.88640 30898 ft 437 kts 252°
2026-05-07 19:38 53.13933 7.83813 31124 ft 438 kts 252°
2026-05-07 19:38 53.13012 7.78970 31349 ft 440 kts 252°
2026-05-07 19:38 53.12081 7.74102 31611 ft 441 kts 252°
2026-05-07 19:38 53.11150 7.69238 31927 ft 440 kts 252°
2026-05-07 19:39 53.10218 7.64388 32237 ft 440 kts 251°
2026-05-07 19:39 53.09285 7.59553 32514 ft 440 kts 251°
2026-05-07 19:39 53.08344 7.54699 32787 ft 441 kts 251°
2026-05-07 19:39 53.07401 7.49852 33078 ft 441 kts 252°
2026-05-07 19:40 53.06459 7.45006 33379 ft 440 kts 251°
2026-05-07 19:40 53.05514 7.40160 33684 ft 440 kts 251°
2026-05-07 19:40 53.04570 7.35322 33979 ft 440 kts 251°
2026-05-07 19:40 53.03625 7.30492 34257 ft 440 kts 251°
2026-05-07 19:41 53.02675 7.25668 34530 ft 438 kts 251°
2026-05-07 19:41 53.01728 7.20882 34875 ft 435 kts 251°
2026-05-07 19:41 53.00779 7.16118 35160 ft 434 kts 251°
2026-05-07 19:41 52.99821 7.11376 35408 ft 433 kts 250°
2026-05-07 19:42 52.98854 7.06646 35628 ft 433 kts 250°
2026-05-07 19:42 52.97883 7.01915 35833 ft 433 kts 250°
2026-05-07 19:42 52.96910 6.97195 36042 ft 433 kts 250°
2026-05-07 19:42 52.95937 6.92474 36107 ft 430 kts 250°
2026-05-07 19:43 52.94011 6.83126 36112 ft 427 kts 250°
2026-05-07 19:43 52.92091 6.73810 36115 ft 427 kts 250°
2026-05-07 19:44 52.90165 6.64510 36112 ft 427 kts 250°
2026-05-07 19:44 52.88228 6.55225 36117 ft 427 kts 250°
2026-05-07 19:45 52.86279 6.45932 36104 ft 427 kts 250°
2026-05-07 19:45 52.84324 6.36649 36104 ft 427 kts 250°
2026-05-07 19:46 52.82361 6.27374 36114 ft 427 kts 250°
2026-05-07 19:46 52.80399 6.18126 36114 ft 426 kts 250°
2026-05-07 19:47 52.78447 6.08960 36113 ft 426 kts 250°
2026-05-07 19:47 52.76457 5.99680 36120 ft 425 kts 250°
2026-05-07 19:48 52.74492 5.90537 36107 ft 425 kts 250°
2026-05-07 19:48 52.72077 5.81681 36110 ft 424 kts 236°
2026-05-07 19:49 52.68345 5.74195 36106 ft 423 kts 228°
2026-05-07 19:49 52.64464 5.66896 36099 ft 423 kts 229°
2026-05-07 19:50 52.60593 5.59593 36096 ft 423 kts 229°
2026-05-07 19:50 52.56722 5.52325 36095 ft 422 kts 229°
2026-05-07 19:51 52.52837 5.45079 35810 ft 422 kts 229°
2026-05-07 19:51 52.50899 5.41471 35562 ft 421 kts 229°
2026-05-07 19:51 52.48885 5.38004 35314 ft 419 kts 221°
2026-05-07 19:52 52.46593 5.35088 35072 ft 417 kts 213°
2026-05-07 19:52 52.44061 5.32809 34831 ft 415 kts 204°
2026-05-07 19:52 52.41382 5.31067 34600 ft 413 kts 202°
2026-05-07 19:52 52.38706 5.29386 34350 ft 411 kts 202°
2026-05-07 19:53 52.36044 5.27710 34117 ft 409 kts 202°
2026-05-07 19:53 52.33399 5.26040 33848 ft 406 kts 202°
2026-05-07 19:53 52.30765 5.24383 33565 ft 404 kts 202°
2026-05-07 19:53 52.28148 5.22742 33289 ft 402 kts 202°
2026-05-07 19:54 52.25542 5.21108 33007 ft 399 kts 202°
2026-05-07 19:54 52.22962 5.19490 32546 ft 395 kts 202°
2026-05-07 19:54 52.20405 5.17885 32055 ft 392 kts 202°
2026-05-07 19:54 52.17875 5.16302 31572 ft 389 kts 202°
2026-05-07 19:55 52.15354 5.14730 31097 ft 386 kts 202°
2026-05-07 19:55 52.12858 5.13178 30637 ft 383 kts 202°
2026-05-07 19:55 52.10380 5.11639 30165 ft 380 kts 202°
2026-05-07 19:55 52.07915 5.10106 29656 ft 377 kts 202°
2026-05-07 19:56 52.05480 5.08589 29223 ft 373 kts 202°
2026-05-07 19:56 52.03070 5.07091 28791 ft 369 kts 202°
2026-05-07 19:56 52.00689 5.05613 28366 ft 365 kts 202°
2026-05-07 19:56 51.98332 5.04153 27948 ft 361 kts 202°
2026-05-07 19:57 51.95997 5.02710 27532 ft 357 kts 202°
2026-05-07 19:57 51.93685 5.01287 27108 ft 354 kts 202°
2026-05-07 19:57 51.91394 4.99876 26704 ft 350 kts 202°
2026-05-07 19:57 51.89130 4.98477 26289 ft 347 kts 202°
2026-05-07 19:58 51.86869 4.97080 25934 ft 351 kts 202°
2026-05-07 19:58 51.84570 4.95657 25685 ft 355 kts 202°
2026-05-07 19:58 51.82266 4.94234 25256 ft 354 kts 202°
2026-05-07 19:58 51.79975 4.92825 24811 ft 351 kts 202°
2026-05-07 19:59 51.77696 4.91429 24369 ft 349 kts 202°
2026-05-07 19:59 51.75428 4.90043 23936 ft 347 kts 202°
2026-05-07 19:59 51.73176 4.88667 23482 ft 345 kts 202°
2026-05-07 19:59 51.70937 4.87298 22992 ft 343 kts 202°
2026-05-07 20:00 51.68711 4.85938 22512 ft 341 kts 202°
2026-05-07 20:00 51.66496 4.84588 22089 ft 339 kts 202°
2026-05-07 20:00 51.64292 4.83248 21823 ft 339 kts 202°
2026-05-07 20:00 51.62090 4.81911 21558 ft 338 kts 202°
2026-05-07 20:01 51.59950 4.80382 21295 ft 336 kts 210°
2026-05-07 20:01 51.58000 4.78348 21035 ft 333 kts 219°
2026-05-07 20:01 51.56288 4.75863 20778 ft 331 kts 227°
2026-05-07 20:01 51.54836 4.72991 20517 ft 335 kts 236°
2026-05-07 20:02 51.53545 4.69718 20271 ft 355 kts 238°
2026-05-07 20:02 51.52228 4.66330 20029 ft 360 kts 238°
2026-05-07 20:02 51.50895 4.62918 19774 ft 360 kts 238°
2026-05-07 20:02 51.49564 4.59520 19529 ft 360 kts 238°
2026-05-07 20:03 51.48231 4.56127 19279 ft 359 kts 238°
2026-05-07 20:03 51.46905 4.52754 19035 ft 357 kts 238°
2026-05-07 20:03 51.45582 4.49393 18795 ft 356 kts 238°
2026-05-07 20:03 51.44261 4.46038 18556 ft 355 kts 238°
2026-05-07 20:04 51.42873 4.42770 18190 ft 356 kts 231°
2026-05-07 20:04 51.41006 4.40206 17475 ft 352 kts 210°
2026-05-07 20:04 51.38722 4.38940 16731 ft 348 kts 188°
2026-05-07 20:04 51.36309 4.38683 16009 ft 347 kts 183°
2026-05-07 20:05 51.33908 4.38569 15368 ft 344 kts 182°
2026-05-07 20:05 51.31552 4.38953 14730 ft 341 kts 164°
2026-05-07 20:05 51.29351 4.40303 14000 ft 337 kts 158°
2026-05-07 20:05 51.27210 4.41781 13166 ft 333 kts 158°
2026-05-07 20:06 51.25096 4.43250 12378 ft 330 kts 158°
2026-05-07 20:06 51.23069 4.44941 11732 ft 329 kts 143°
2026-05-07 20:06 51.21432 4.47479 11103 ft 328 kts 133°
2026-05-07 20:06 51.19909 4.50167 10370 ft 325 kts 133°
2026-05-07 20:07 51.18404 4.52839 9541 ft 322 kts 133°
2026-05-07 20:07 51.16918 4.55469 8679 ft 317 kts 133°
2026-05-07 20:07 51.15462 4.58041 8028 ft 307 kts 133°
2026-05-07 20:07 51.14198 4.60703 7449 ft 297 kts 118°
2026-05-07 20:08 51.13368 4.63623 7027 ft 283 kts 113°
2026-05-07 20:08 51.12634 4.66467 6609 ft 274 kts 112°
2026-05-07 20:08 51.11921 4.69255 6130 ft 270 kts 112°
2026-05-07 20:08 51.11213 4.71999 5582 ft 266 kts 112°
2026-05-07 20:09 51.10506 4.74698 5006 ft 262 kts 112°
2026-05-07 20:09 51.09797 4.77350 4638 ft 260 kts 112°
2026-05-07 20:09 51.09098 4.79948 4356 ft 246 kts 112°
2026-05-07 20:10 51.07801 4.84744 3963 ft 228 kts 112°
2026-05-07 20:10 51.07174 4.87053 3809 ft 227 kts 114°
2026-05-07 20:10 51.06628 4.88456 3698 ft 226 kts 133°
2026-05-07 20:10 51.05300 4.89732 3549 ft 227 kts 166°
2026-05-07 20:11 51.03731 4.89630 3400 ft 230 kts 200°
2026-05-07 20:11 51.02386 4.88274 3255 ft 232 kts 220°
2026-05-07 20:11 51.00790 4.85959 3075 ft 232 kts 223°
2026-05-07 20:11 51.00015 4.84792 3003 ft 232 kts 223°
2026-05-07 20:12 50.98848 4.83025 3002 ft 232 kts 223°
2026-05-07 20:12 50.97678 4.81253 3007 ft 232 kts 223°
2026-05-07 20:12 50.96539 4.79527 3006 ft 219 kts 223°
2026-05-07 20:12 50.95689 4.77646 3001 ft 204 kts 248°
2026-05-07 20:13 50.95216 4.75585 3056 ft 197 kts 250°
2026-05-07 20:13 50.94758 4.73562 2940 ft 194 kts 250°
2026-05-07 20:13 50.94302 4.71563 2719 ft 191 kts 250°
2026-05-07 20:13 50.93856 4.69607 2482 ft 186 kts 249°
2026-05-07 20:14 50.93426 4.67726 2235 ft 177 kts 250°
2026-05-07 20:14 50.93015 4.65931 1995 ft 171 kts 249°
2026-05-07 20:14 50.92620 4.64203 1763 ft 161 kts 250°
2026-05-07 20:14 50.92252 4.62599 1561 ft 151 kts 249°
2026-05-07 20:15 50.91899 4.61058 1359 ft 147 kts 250°
2026-05-07 20:15 50.91551 4.59543 1159 ft 146 kts 250°
2026-05-07 20:15 50.91205 4.58038 958 ft 145 kts 250°
2026-05-07 20:15 50.90863 4.56547 758 ft 144 kts 250°
2026-05-07 20:16 50.90524 4.55065 576 ft 143 kts 250°
2026-05-07 20:16 50.90188 4.53594 384 ft 142 kts 250°
2026-05-07 20:16 50.89851 4.52133 210 ft 141 kts 249°
2026-05-07 20:16 50.89556 4.50893 175 ft 74 kts 249°
2026-05-07 20:17 50.89486 4.50416 175 ft 32 kts 272°
2026-05-07 20:17 50.89513 4.50157 171 ft 14 kts 278°
2026-05-07 20:17 50.89528 4.49997 169 ft 15 kts 279°
2026-05-07 20:17 50.89514 4.49844 168 ft 14 kts 249°
2026-05-07 20:18 50.89483 4.49707 168 ft 16 kts 250°
2026-05-07 20:18 50.89439 4.49516 167 ft 20 kts 249°
2026-05-07 20:18 50.89458 4.49362 166 ft 10 kts 359°
2026-05-07 20:18 50.89543 4.49312 160 ft 18 kts 312°
2026-05-07 20:19 50.89642 4.49263 153 ft 17 kts
2026-05-07 20:19 50.89781 4.49317 144 ft 24 kts 14°
2026-05-07 20:19 50.89916 4.49372 136 ft 7 kts 14°
2026-05-07 20:19 50.89972 4.49395 133 ft 10 kts 15°
2026-05-07 20:20 50.90078 4.49439 129 ft 16 kts 13°
2026-05-07 20:20 50.90201 4.49489 126 ft 20 kts 14°
2026-05-07 20:20 50.90306 4.49530 124 ft 7 kts 14°
2026-05-07 20:20 50.90309 4.49532 123 ft 1 kts 14°
2026-05-07 20:21 50.90330 4.49537 125 ft 8 kts
2026-05-07 20:21 50.90394 4.49492 123 ft 11 kts 331°
2026-05-07 20:21 50.90419 4.49401 124 ft 8 kts 276°
2026-05-07 20:21 50.90427 4.49301 121 ft 12 kts 307°
2026-05-07 20:22 50.90499 4.49238 122 ft 11 kts 338°
2026-05-07 20:22 50.90559 4.49198 121 ft 9 kts 335°
2026-05-07 20:22 50.90611 4.49159 119 ft 10 kts 335°
2026-05-07 20:22 50.90638 4.49051 117 ft 12 kts 251°
2026-05-07 20:23 50.90605 4.48937 117 ft 11 kts 245°
2026-05-07 20:23 50.90567 4.48805 118 ft 13 kts 245°
2026-05-07 20:23 50.90532 4.48683 120 ft 11 kts 245°
2026-05-07 20:23 50.90494 4.48552 119 ft 15 kts 245°
2026-05-07 20:24 50.90451 4.48402 117 ft 14 kts 245°
2026-05-07 20:24 50.90413 4.48268 119 ft 13 kts 245°
2026-05-07 20:24 50.90372 4.48164 119 ft 10 kts 205°
2026-05-07 20:24 50.90316 4.48187 119 ft 7 kts 156°
2026-05-07 20:25 50.90299 4.48200 119 ft 2 kts 154°
2026-05-07 20:25 50.90293 4.48205 120 ft 0 kts 155°